Home   Weather   Waterford   Past weeks
Flag for Ireland

Past Weather in Waterford, Ireland — Yesterday and Last 2 Weeks

Now
48 °F

Passing clouds.


Feels Like: 41 °F
Forecast: N/A
Wind: 22 mph from Southwest

Location: Cork Airport

Current Time: Dec 7, 2019 at 5:44:36 pm

Latest Report: Dec 7, 2019 at 5:00 pm


Visibility: N/A

Pressure: 29.65 "Hg

Humidity: 100%

Dew Point: 48 °F

Location of WaterfordLocation

Past Weather in Waterford — Graph

°F

Waterford Temperature Yesterday

Maximum temperature yesterday: 52 °F (at 12:00 am)
Minimum temperature yesterday: 41 °F (at 9:30 pm)
Average temperature yesterday: 49 °F

High & Low Weather Summary for the Past Weeks

 TemperatureHumidityPressure
High52 °F (Nov 25, 11:30 am)100% (Nov 22, 8:00 pm)30.54 "Hg (Nov 22, 8:00 pm)
Low34 °F (Dec 2, 1:00 am)66% (Dec 2, 12:30 pm)28.74 "Hg (Nov 26, 9:00 am)
Average45 °F91%29.73 "Hg
* Reported Nov 22 4:00 pm — Dec 7 4:30 pm, Waterford. Weather by CustomWeather, © 2019

Note: Actual official high and low records may vary slightly from our data, if they occured in-between our weather recording intervals... More about our weather records

Waterford Weather History for the Previous 24 Hours

Scroll right to see more
 ConditionsComfort  
Time TempWeatherWind HumidityBarometerVisibility
4:30 pm
Sat, Dec 7
48 °FPassing clouds.21 mph100%29.68 "HgN/A
4:00 pm48 °FDrizzle. Partly sunny.22 mph100%29.71 "Hg2 mi
3:30 pm48 °FDrizzle. Partly sunny.18 mph100%29.74 "Hg6 mi
3:00 pm48 °FDrizzle. Partly sunny.21 mph100%29.74 "HgN/A
2:30 pm48 °FPartly sunny.21 mph94%29.77 "HgN/A
2:00 pm48 °FDrizzle. Partly sunny.21 mph100%29.77 "HgN/A
1:30 pm48 °FPartly sunny.18 mph94%29.80 "HgN/A
1:00 pm48 °FDrizzle. Partly sunny.18 mph100%29.80 "Hg6 mi
12:30 pm50 °FDrizzle. Partly sunny.21 mph94%29.83 "Hg5 mi
12:00 pm50 °FDrizzle. Partly sunny.17 mph94%29.86 "HgN/A
11:30 am48 °FDrizzle. Partly sunny.16 mph100%29.86 "HgN/A
11:00 am48 °FPartly sunny.17 mph94%29.86 "HgN/A
10:30 am48 °FPartly sunny.15 mph94%29.86 "HgN/A
10:00 am48 °FPartly sunny.14 mph94%29.89 "HgN/A
9:30 am46 °FPartly sunny.9 mph100%29.89 "HgN/A
9:00 am46 °FPartly sunny.13 mph100%29.89 "Hg4 mi
8:30 am46 °FPartly sunny.10 mph100%29.89 "HgN/A
8:00 am46 °FPassing clouds.10 mph100%29.89 "HgN/A
7:30 am45 °FPassing clouds.9 mph100%29.89 "HgN/A
7:00 am45 °FPassing clouds.7 mph93%29.89 "HgN/A
6:30 am45 °FPassing clouds.7 mph100%29.89 "HgN/A
6:00 am45 °FPassing clouds.7 mph100%29.89 "HgN/A
5:30 am41 °FPassing clouds.8 mph100%29.89 "HgN/A
5:00 am41 °FPassing clouds.6 mph100%29.89 "HgN/A
4:30 am43 °FPassing clouds.8 mph100%29.89 "HgN/A
4:00 am45 °FPassing clouds.9 mph93%29.89 "HgN/A
3:30 am45 °FPassing clouds.10 mph93%29.92 "HgN/A
3:00 am43 °FPassing clouds.12 mph93%29.92 "HgN/A
2:30 am43 °FPassing clouds.12 mph93%29.92 "HgN/A
2:00 am43 °FPassing clouds.10 mph93%29.89 "HgN/A
1:30 am43 °FPassing clouds.9 mph93%29.89 "HgN/A
1:00 am43 °FPassing clouds.8 mph93%29.89 "HgN/A
12:30 am45 °FPassing clouds.8 mph87%29.89 "HgN/A
12:00 am43 °FPassing clouds.9 mph93%29.89 "HgN/A
11:30 pm
Fri, Dec 6
43 °FPassing clouds.8 mph87%29.89 "HgN/A
11:00 pm41 °FPassing clouds.7 mph93%29.89 "HgN/A
10:30 pm45 °FPassing clouds.9 mph87%29.89 "HgN/A
10:00 pm41 °FPassing clouds.9 mph93%29.89 "HgN/A
9:30 pm41 °FPassing clouds.8 mph93%29.89 "HgN/A
9:00 pm43 °FPassing clouds.7 mph87%29.86 "HgN/A
8:30 pm45 °FPassing clouds.10 mph81%29.86 "HgN/A
8:00 pm45 °FPassing clouds.7 mph87%29.83 "HgN/A
7:30 pm46 °FPassing clouds.8 mph82%29.83 "HgN/A
7:00 pm45 °FPartly cloudy.7 mph87%29.83 "HgN/A
6:30 pm46 °FPassing clouds.10 mph82%29.83 "HgN/A
6:00 pm48 °FPassing clouds.12 mph82%29.80 "HgN/A
5:30 pm48 °FPartly cloudy.12 mph76%29.80 "HgN/A
5:00 pm48 °FPassing clouds.15 mph76%29.77 "HgN/A
Weather by CustomWeather, © 2019

See weather overview

Advertising